Regional Weather Roundup
Issued by NWS

Home | Current Version | Previous Version | Graphics & Text | Print | Product List | Glossary On
Versions: 1 2 3 4 5 6 7 8 9 10 11 12 13 14 15 16 17 18 19 20 21 22 23 24 25 26 27 28 29 30 31 32 33 34 35 36 37 38 39 40 41 42 43 44 45 46 47 48 49 50
000
ASUS43 KTOP 172208
RWRKS

WEATHER ROUNDUP FOR KANSAS
NATIONAL WEATHER SERVICE GOODLAND KS
400 PM CST TUE JAN 17 2017

NOTE:  "FAIR" INDICATES FEW OR NO CLOUDS BELOW 12,000 FEET WITH NO
SIGNIFICANT WEATHER AND/OR OBSTRUCTIONS TO VISIBILITY.

KSZ001>006-013>018-027>032-041>047-172300-
NORTHWEST KANSAS

CITY           SKY/WX    TMP DP  RH WIND       PRES   REMARKS
GOODLAND       SUNNY     45  33  63 SW8       30.04R
HAYS           SUNNY     48  31  51 W7        30.10R
HILL CITY      SUNNY     50  30  46 VRB6      30.08R
RUSSELL        SUNNY     46  30  53 W9        30.09R
$$

KSZ061>065-074>080-084>089-172300-
SOUTHWEST KANSAS

CITY           SKY/WX    TMP DP  RH WIND       PRES   REMARKS
DODGE CITY     SUNNY     49  30  48 NW6       30.09S
ELKHART          N/A     49  34  56 S6          N/A
GARDEN CITY    SUNNY     47  33  58 W7        30.08S
GREAT BEND     SUNNY     47  29  49 W6        30.10F
LIBERAL        SUNNY     52  34  50 W5        30.07F
PRATT          SUNNY     47  28  47 NW8       30.10F
$$

KSZ066>073-081>083-090>101-172300-
SOUTHEAST KANSAS

CITY           SKY/WX    TMP DP  RH WIND       PRES   REMARKS
CHANUTE        MOSUNNY   46  37  71 NW6       30.12F
COFFEYVILLE    MOSUNNY   45  36  70 S5        30.15R
HUTCHINSON     SUNNY     49  30  48 NW6       30.11S
MEDICINE LODGE   N/A     55  30  38 VRB3      30.08F
NEWTON         SUNNY     48  34  58 W5        30.11S
PARSONS        MOSUNNY   44  36  73 SW3       30.14F
WICHITA INTL   SUNNY     50  30  46 NW3       30.10F
WICHITA JABRA  SUNNY     50  29  44 NW9       30.10F
WICHITA MCCONL SUNNY     51  27  39 N5        30.10F
WINFIELD       SUNNY     51  32  48 NW8       30.12F
$$

KSZ007>012-019>026-033>040-048>060-102>105-172300-
NORTHEAST KANSAS

CITY           SKY/WX    TMP DP  RH WIND       PRES   REMARKS
CONCORDIA      SUNNY     41  32  70 W8        30.10R
EMPORIA        SUNNY     49  34  56 NW7       30.10S
LAWRENCE       SUNNY     43  36  76 W6        30.13R
MANHATTAN      SUNNY     46  29  51 W7        30.11S
MARYSVILLE     SUNNY     41  32  70 SW8       30.10R
OLATHE IND     PTSUNNY   40  36  86 W5        30.13R
OLATHE EXE     CLOUDY    39  36  89 W5        30.12R
SALINA         SUNNY     46  30  53 W8        30.11F
TOPEKA BILLARD SUNNY     46  34  62 W7        30.11S
TOPEKA FORBES  SUNNY     48  34  58 N6        30.11R
$$




USA.gov is the U.S. government's official web portal to all federal, state and local government web resources and services.